EW1185 Weather Reports


Display with metric or nautical units.
time (UTC)temp
F
wind
direction
speed
MPH
gust
MPH
rain 1hr
in
rain 24hr
in
rain mn
in
humidity
%
barometer
mb
20260502151519 59 135 0.0 0.0 0.00 0.00 0.00 32 1016.8
20260502130520 43 135 0.0 0.0 0.00 0.00 0.00 39 1016.6
20260502123519 43 135 0.0 0.0 0.00 0.00 0.00 39 1016.6
20260502123019 43 135 0.0 0.0 0.00 0.00 0.00 39 1016.6
20260502122519 43 135 0.0 0.0 0.00 0.00 0.00 39 1016.6
20260502122019 43 135 0.0 0.0 0.00 0.00 0.00 39 1016.6
20260502121519 43 135 0.0 0.0 0.00 0.00 0.00 39 1016.4
20260502121020 43 135 0.0 0.0 0.00 0.00 0.00 39 1016.4
20260502120520 44 135 0.0 0.0 0.00 0.00 0.00 39 1016.4
20260502115519 45 135 0.0 0.0 0.00 0.00 0.00 38 1015.9
20260502115019 46 135 0.0 0.0 0.00 0.00 0.00 38 1015.9
20260502114519 46 135 0.0 0.0 0.00 0.00 0.00 38 1015.9
20260502114019 47 135 0.0 0.0 0.00 0.00 0.00 38 1015.9
20260502113519 47 135 0.0 0.0 0.00 0.00 0.00 38 1015.7
20260502113019 47 135 0.0 0.0 0.00 0.00 0.00 38 1015.7
20260502112519 46 135 0.0 0.0 0.00 0.00 0.00 38 1015.7
20260502112019 46 135 0.0 0.0 0.00 0.00 0.00 38 1015.7
20260502111519 46 135 0.0 0.0 0.00 0.00 0.00 38 1015.5
20260502111019 46 135 0.0 0.0 0.00 0.00 0.00 38 1015.5
20260502110519 47 135 0.0 0.0 0.00 0.00 0.00 38 1015.5
20260502110019 47 135 0.0 0.0 0.00 0.00 0.00 40 1015.5
20260502105019 48 135 0.0 0.0 0.00 0.00 0.00 40 1015.4
20260502104519 49 135 0.0 0.0 0.00 0.00 0.00 40 1015.4
20260502104019 49 135 0.0 0.0 0.00 0.00 0.00 40 1015.4
20260502103519 49 135 0.0 0.0 0.00 0.00 0.00 40 1015.6
20260502103020 49 135 0.0 0.0 0.00 0.00 0.00 40 1015.6
20260502102519 48 135 0.0 0.0 0.00 0.00 0.00 40 1015.6
20260502102019 47 135 0.0 0.0 0.00 0.00 0.00 40 1015.6
20260502101519 47 135 0.0 0.0 0.00 0.00 0.00 40 1015.6
20260502101019 48 135 0.0 0.0 0.00 0.00 0.00 40 1015.6
20260502100519 48 135 0.0 0.0 0.00 0.00 0.00 40 1015.6
20260502091518 48 135 0.0 0.0 0.00 0.00 0.00 41 1015.8
20260502091020 48 135 0.0 0.0 0.00 0.00 0.00 41 1015.8
20260502071519 49 135 0.0 0.0 0.00 0.00 0.00 38 1016.1
20260502071019 49 135 0.0 0.0 0.00 0.00 0.00 38 1016.1
20260502070518 49 135 0.0 0.0 0.00 0.00 0.00 38 1016.1
20260502065519 49 135 0.0 0.0 0.00 0.00 0.00 35 1016.3
20260502064519 49 135 0.0 0.0 0.00 0.00 0.00 35 1016.3
20260502063519 51 135 0.0 0.0 0.00 0.00 0.00 35 1016.3
20260502063019 51 135 0.0 0.0 0.00 0.00 0.00 35 1016.3
20260502062519 52 135 0.0 0.0 0.00 0.00 0.00 35 1016.3
20260502062019 53 135 0.0 0.0 0.00 0.00 0.00 35 1016.3
20260502061019 54 135 0.0 0.0 0.00 0.00 0.00 35 1016.0
20260502060519 54 135 0.0 0.0 0.00 0.00 0.00 35 1016.0
20260502060019 55 135 0.0 0.0 0.00 0.00 0.00 37 1016.0
20260502055519 55 135 0.0 0.0 0.00 0.00 0.00 37 1016.1
20260502055019 55 135 0.0 0.0 0.00 0.00 0.00 37 1016.1
20260502054519 54 135 0.0 0.0 0.00 0.00 0.00 37 1016.1
20260502054019 55 135 0.0 0.0 0.00 0.00 0.00 37 1016.1
20260502053519 54 135 0.0 0.0 0.00 0.00 0.00 37 1016.3
20260502052518 53 135 0.0 0.0 0.00 0.00 0.00 37 1016.3
20260502052019 52 135 0.0 0.0 0.00 0.00 0.00 37 1016.3
20260502051519 53 135 0.0 0.0 0.00 0.00 0.00 37 1016.3
20260502051019 53 135 0.0 0.0 0.00 0.00 0.00 37 1016.3
20260502050518 54 135 0.0 0.0 0.00 0.00 0.00 37 1016.3
20260502050019 54 135 0.0 0.0 0.00 0.00 0.00 37 1016.3
20260502045519 54 135 0.0 0.0 0.00 0.00 0.00 37 1016.4
20260502045019 55 135 0.0 0.0 0.00 0.00 0.00 37 1016.4
20260502044519 55 135 0.0 0.0 0.00 0.00 0.00 37 1016.4
20260502044019 54 135 0.0 0.0 0.00 0.00 0.00 37 1016.4
20260502043519 54 135 0.0 0.0 0.00 0.00 0.00 37 1016.4
20260502043019 55 135 0.0 0.0 0.00 0.00 0.00 37 1016.4
20260502042519 55 135 0.0 0.0 0.00 0.00 0.00 37 1016.4
20260502042019 55 135 0.0 0.0 0.00 0.00 0.00 37 1016.4
20260502041518 55 135 0.0 0.0 0.00 0.00 0.00 37 1016.2
20260502041019 55 135 0.0 0.0 0.00 0.00 0.00 37 1016.2
20260502040518 55 135 0.0 0.0 0.00 0.00 0.00 37 1016.2
20260502035518 55 135 0.0 0.0 0.00 0.00 0.00 37 1016.1
20260502035018 55 135 0.0 0.0 0.00 0.00 0.00 37 1016.1
20260502034519 55 135 0.0 0.0 0.00 0.00 0.00 37 1016.1
20260502033518 55 135 0.0 0.0 0.00 0.00 0.00 37 1015.9
20260502031519 57 135 0.0 0.0 0.00 0.00 0.00 37 1015.8
20260502031019 58 135 0.0 0.0 0.00 0.00 0.00 37 1015.8
20260502030518 58 135 0.0 0.0 0.00 0.00 0.00 37 1015.8
20260502025519 59 135 0.0 0.0 0.00 0.00 0.00 31 1015.6
20260502025019 59 135 0.0 0.0 0.00 0.00 0.00 31 1015.6
20260502024518 59 135 0.0 0.0 0.00 0.00 0.00 31 1015.6
20260502023519 60 135 0.0 0.0 0.00 0.00 0.00 31 1015.6
20260502023019 60 135 0.0 0.0 0.00 0.00 0.00 31 1015.6
20260502022518 60 135 0.0 0.0 0.00 0.00 0.00 31 1015.6
20260502021518 61 135 0.0 0.0 0.00 0.00 0.00 31 1016.3
20260502021018 61 135 0.0 0.0 0.00 0.00 0.00 31 1016.3
20260502020519 61 135 0.0 0.0 0.00 0.00 0.00 31 1016.3
20260502020018 62 135 0.0 0.0 0.00 0.00 0.00 20 1016.3
20260502015518 62 135 0.0 0.0 0.00 0.00 0.00 20 1015.5
20260502015019 62 135 0.0 0.0 0.00 0.00 0.00 20 1015.5
20260502014518 62 135 0.0 0.0 0.00 0.00 0.00 20 1015.5
20260502014018 62 135 0.0 0.0 0.00 0.00 0.00 20 1015.5
20260502013018 63 135 0.0 0.0 0.00 0.00 0.00 20 1015.3
20260502012518 64 135 0.0 0.0 0.00 0.00 0.00 20 1015.3
20260502012018 64 135 0.0 0.0 0.00 0.00 0.00 20 1015.3
20260502011518 65 135 0.0 0.0 0.00 0.00 0.00 20 1015.2
20260502011019 65 135 0.0 0.0 0.00 0.00 0.00 20 1015.2
20260502010518 66 135 0.0 0.0 0.00 0.00 0.00 20 1015.2
20260502010018 66 135 0.0 0.0 0.00 0.00 0.00 18 1015.2
20260502005018 67 135 0.0 0.0 0.00 0.00 0.00 18 1015.2
20260502004018 67 135 0.0 0.0 0.00 0.00 0.00 18 1015.2
20260502003518 67 135 0.0 0.0 0.00 0.00 0.00 18 1015.3
20260502003018 67 135 0.0 0.0 0.00 0.00 0.00 18 1015.3
20260502002518 67 135 0.0 0.0 0.00 0.00 0.00 18 1015.3
20260502002019 67 135 0.0 0.0 0.00 0.00 0.00 18 1015.3
20260502001518 67 135 0.0 0.0 0.00 0.00 0.00 18 1015.3
20260502001018 67 135 0.0 0.0 0.00 0.00 0.00 18 1015.3
20260502000019 67 135 0.0 0.0 0.00 0.00 0.00 19 1015.3
20260501235019 67 135 0.0 0.0 0.00 0.00 0.00 19 1015.4
20260501234518 67 135 0.0 0.0 0.00 0.00 0.00 19 1015.4
20260501234018 67 135 0.0 0.0 0.00 0.00 0.00 19 1015.4
20260501233518 67 135 0.0 0.0 0.00 0.00 0.00 19 1015.5
20260501233018 67 135 0.0 0.0 0.00 0.00 0.00 19 1015.5
20260501232518 67 135 0.0 0.0 0.00 0.00 0.00 19 1015.5
20260501232019 67 135 0.0 0.0 0.00 0.00 0.00 19 1015.5
20260501231517 67 135 0.0 0.0 0.00 0.00 0.00 19 1015.6
20260501231018 67 135 0.0 0.0 0.00 0.00 0.00 19 1015.6
20260501230518 67 135 0.0 0.0 0.00 0.00 0.00 19 1015.6
20260501230018 67 135 0.0 0.0 0.00 0.00 0.00 19 1015.6
20260501225518 67 135 0.0 0.0 0.00 0.00 0.00 19 1015.9
20260501225018 67 135 0.0 0.0 0.00 0.00 0.00 19 1015.9
20260501224518 67 135 0.0 0.0 0.00 0.00 0.00 19 1015.9
20260501224018 67 135 0.0 0.0 0.00 0.00 0.00 19 1015.9
20260501223518 67 135 0.0 0.0 0.00 0.00 0.00 19 1016.0
20260501223018 67 135 0.0 0.0 0.00 0.00 0.00 19 1016.0
20260501221018 66 135 0.0 0.0 0.00 0.00 0.00 19 1016.2
20260501220518 66 135 0.0 0.0 0.00 0.00 0.00 19 1016.2
20260501220018 66 135 0.0 0.0 0.00 0.00 0.00 18 1016.2
20260501215518 66 135 0.0 0.0 0.00 0.00 0.00 18 1016.5
20260501214518 66 135 0.0 0.0 0.00 0.00 0.00 18 1016.5
20260501214018 66 135 0.0 0.0 0.00 0.00 0.00 18 1016.5
20260501213518 66 135 0.0 0.0 0.00 0.00 0.00 18 1016.6
20260501212517 66 135 0.0 0.0 0.00 0.00 0.00 18 1016.6
20260501212018 66 135 0.0 0.0 0.00 0.00 0.00 18 1016.6
20260501211518 66 135 0.0 0.0 0.00 0.00 0.00 18 1016.8
20260501211018 66 135 0.0 0.0 0.00 0.00 0.00 18 1016.8
20260501210518 66 135 0.0 0.0 0.00 0.00 0.00 18 1016.8
20260501210018 66 135 0.0 0.0 0.00 0.00 0.00 18 1016.8
20260501205518 66 135 0.0 0.0 0.00 0.00 0.00 18 1016.3
20260501205019 66 135 0.0 0.0 0.00 0.00 0.00 18 1016.3
20260501204518 66 135 0.0 0.0 0.00 0.00 0.00 18 1016.3
20260501204018 65 135 0.0 0.0 0.00 0.00 0.00 18 1016.3
20260501203518 65 135 0.0 0.0 0.00 0.00 0.00 18 1016.6
20260501202518 65 135 0.0 0.0 0.00 0.00 0.00 18 1016.6
20260501202018 66 135 0.0 0.0 0.00 0.00 0.00 18 1016.6
20260501201518 66 135 0.0 0.0 0.00 0.00 0.00 18 1016.7
20260501201018 66 135 0.0 0.0 0.00 0.00 0.00 18 1016.7
20260501200517 66 135 0.0 0.0 0.00 0.00 0.00 18 1016.7
20260501200018 65 135 0.0 0.0 0.00 0.00 0.00 18 1016.7
20260501195517 65 135 0.0 0.0 0.00 0.00 0.00 18 1016.8
20260501195018 65 135 0.0 0.0 0.00 0.00 0.00 18 1016.8
20260501194517 65 135 0.0 0.0 0.00 0.00 0.00 18 1016.8
20260501194018 65 135 0.0 0.0 0.00 0.00 0.00 18 1016.8
20260501193518 65 135 0.0 0.0 0.00 0.00 0.00 18 1016.9
20260501193018 64 135 0.0 0.0 0.00 0.00 0.00 18 1016.9
20260501192517 64 135 0.0 0.0 0.00 0.00 0.00 18 1016.9
20260501192017 64 135 0.0 0.0 0.00 0.00 0.00 18 1016.9
20260501191517 64 135 0.0 0.0 0.00 0.00 0.00 18 1016.9
20260501191018 64 135 0.0 0.0 0.00 0.00 0.00 18 1016.9
20260501190517 64 135 0.0 0.0 0.00 0.00 0.00 18 1016.9
20260501190018 64 135 0.0 0.0 0.00 0.00 0.00 18 1016.9
20260501185017 64 135 0.0 0.0 0.00 0.00 0.00 18 1016.4
20260501184517 64 135 0.0 0.0 0.00 0.00 0.00 18 1016.4
20260501184018 63 135 0.0 0.0 0.00 0.00 0.00 18 1016.4
20260501183518 62 135 0.0 0.0 0.00 0.00 0.00 18 1016.9
20260501183018 63 135 0.0 0.0 0.00 0.00 0.00 18 1016.9
20260501182517 62 135 0.0 0.0 0.00 0.00 0.00 18 1016.9
20260501182018 62 135 0.0 0.0 0.00 0.00 0.00 18 1016.9
20260501181518 62 135 0.0 0.0 0.00 0.00 0.00 18 1017.1
20260501181017 62 135 0.0 0.0 0.00 0.00 0.00 18 1017.1
20260501180518 62 135 0.0 0.0 0.00 0.00 0.00 18 1017.1
20260501180018 62 135 0.0 0.0 0.00 0.00 0.00 24 1017.1
20260501175517 62 135 0.0 0.0 0.00 0.00 0.00 24 1017.0
20260501174518 62 135 0.0 0.0 0.00 0.00 0.00 24 1017.0
20260501174017 62 135 0.0 0.0 0.00 0.00 0.00 24 1017.0
20260501173517 61 135 0.0 0.0 0.00 0.00 0.00 24 1017.1
20260501173017 61 135 0.0 0.0 0.00 0.00 0.00 24 1017.1
20260501172518 61 135 0.0 0.0 0.00 0.00 0.00 24 1017.1
20260501172018 61 135 0.0 0.0 0.00 0.00 0.00 24 1017.1
20260501171517 61 135 0.0 0.0 0.00 0.00 0.00 24 1016.9
20260501171017 60 135 0.0 0.0 0.00 0.00 0.00 24 1016.9
20260501170518 61 135 0.0 0.0 0.00 0.00 0.00 24 1016.9
20260501165517 60 135 0.0 0.0 0.00 0.00 0.00 38 1016.9
20260501165017 60 135 0.0 0.0 0.00 0.00 0.00 38 1016.9
20260501164518 60 135 0.0 0.0 0.00 0.00 0.00 38 1016.9
20260501164017 60 135 0.0 0.0 0.00 0.00 0.00 38 1016.9
20260501163518 60 135 0.0 0.0 0.00 0.00 0.00 38 1016.8
20260501163017 60 135 0.0 0.0 0.00 0.00 0.00 38 1016.8
20260501162517 60 135 0.0 0.0 0.00 0.00 0.00 38 1016.8
20260501162017 59 135 0.0 0.0 0.00 0.00 0.00 38 1016.8
20260501161517 60 135 0.0 0.0 0.00 0.00 0.00 38 1016.6
20260501161018 60 135 0.0 0.0 0.00 0.00 0.00 38 1016.6
20260501160517 60 135 0.0 0.0 0.00 0.00 0.00 38 1016.6
20260501160017 59 135 0.0 0.0 0.00 0.00 0.00 44 1016.6
20260501155017 58 135 0.0 0.0 0.00 0.00 0.00 44 1016.5
20260501154518 58 135 0.0 0.0 0.00 0.00 0.00 44 1016.5
20260501154018 58 135 0.0 0.0 0.00 0.00 0.00 44 1016.5
20260501153517 58 135 0.0 0.0 0.00 0.00 0.00 44 1016.1
20260501153018 57 135 0.0 0.0 0.00 0.00 0.00 44 1016.1
20260501152018 57 135 0.0 0.0 0.00 0.00 0.00 44 1016.1